Private Wetterstation Wechselburg
Wetterdaten: Sonntag, 03.03.2013
Datum Zeit Temp. +2m Bodentemp. Temp.+5cm Temp. Wind Windchill X Diff Temp. Feuchte +2m Feuchte +5cm Sonnenschein Luftdruck Regen Wind Richtung Richtung Sonnenschein UV Taupunkt Windchill Windben
03.03.2013 00:00 -2,1 C 8,2 C -2,7 C -2,5 C -3,2 C 0,0 C 86 % 91 % 0 % 1021,8 hPa 0,0 l/m 0,2 km/h (0 Bft) S-SW 202 0 min 0,0 UV-I -4,1 C -3,2 C 2,6 km/h (1 Bft)
03.03.2013 00:05 -2,3 C 8,1 C -2,6 C -2,5 C -3,0 C 0,0 C 87 % 91 % 0 % 1021,8 hPa 0,0 l/m 1,0 km/h (0 Bft) W-SW 247 0 min 0,0 UV-I -4,2 C -3,0 C 3,9 km/h (1 Bft)
03.03.2013 00:10 -2,1 C 8,1 C -2,3 C -2,3 C -2,7 C 0,0 C 87 % 91 % 0 % 1021,8 hPa 0,0 l/m 2,3 km/h (1 Bft) W 270 0 min 0,0 UV-I -4,0 C -2,7 C 0,0 km/h (0 Bft)
03.03.2013 00:15 -2,1 C 8,1 C -2,3 C -2,2 C -2,5 C 0,0 C 87 % 91 % 0 % 1021,8 hPa 0,0 l/m 1,3 km/h (1 Bft) S-SW 202 0 min 0,0 UV-I -4,0 C -2,5 C 5,8 km/h (2 Bft)
03.03.2013 00:20 -2,1 C 8,1 C -2,5 C -2,3 C -2,7 C 0,0 C 87 % 91 % 0 % 1021,6 hPa 0,0 l/m 0,2 km/h (0 Bft) S 180 0 min 0,0 UV-I -4,0 C -2,7 C 0,0 km/h (0 Bft)
03.03.2013 00:25 -2,1 C 8,1 C -2,5 C -2,4 C -2,9 C 0,0 C 87 % 91 % 0 % 1021,6 hPa 0,0 l/m 0,3 km/h (0 Bft) W-SW 247 0 min 0,0 UV-I -4,0 C -2,9 C 0,0 km/h (0 Bft)
03.03.2013 00:30 -2,1 C 8,1 C -2,5 C -2,4 C -2,9 C 0,0 C 87 % 91 % 0 % 1021,6 hPa 0,0 l/m 0,6 km/h (0 Bft) W-SW 247 0 min 0,0 UV-I -4,0 C -2,9 C 2,1 km/h (1 Bft)
03.03.2013 00:35 -2,1 C 8,1 C -2,3 C -2,3 C -2,7 C 0,0 C 87 % 91 % 0 % 1021,6 hPa 0,0 l/m 1,3 km/h (1 Bft) NW 315 0 min 0,0 UV-I -4,0 C -2,7 C 3,7 km/h (1 Bft)
03.03.2013 00:50 -2,1 C 8,1 C -2,4 C -2,3 C -2,8 C 0,0 C 87 % 91 % 0 % 1021,6 hPa 0,0 l/m 0,2 km/h (0 Bft) NW 315 0 min 0,0 UV-I -4,0 C -2,8 C 0,0 km/h (0 Bft)
03.03.2013 00:52 -2,1 C 8,1 C -2,3 C -2,4 C -2,9 C 0,0 C 87 % 91 % 0 % 1021,6 hPa 0,0 l/m 1,1 km/h (1 Bft) W 270 0 min 0,0 UV-I -4,0 C -2,9 C 3,2 km/h (1 Bft)
03.03.2013 00:57 -2,1 C 8,1 C -2,1 C -2,3 C -2,8 C 0,0 C 87 % 91 % 0 % 1021,6 hPa 0,0 l/m 1,8 km/h (1 Bft) W-SW 247 0 min 0,0 UV-I -4,0 C -2,8 C 2,3 km/h (1 Bft)
03.03.2013 01:02 -2,1 C 8,1 C -2,1 C -2,3 C -2,7 C 0,0 C 87 % 91 % 0 % 1021,6 hPa 0,0 l/m 1,9 km/h (1 Bft) SW 225 0 min 0,0 UV-I -4,0 C -2,7 C 2,9 km/h (1 Bft)
03.03.2013 01:07 -2,2 C 8,1 C -2,3 C -2,4 C -2,7 C 0,0 C 87 % 91 % 0 % 1021,6 hPa 0,0 l/m 1,1 km/h (1 Bft) N-NO 22 0 min 0,0 UV-I -4,1 C -2,7 C 0,0 km/h (0 Bft)
03.03.2013 01:12 -2,4 C 8,1 C -2,4 C -2,6 C -2,9 C 0,0 C 87 % 91 % 0 % 1021,6 hPa 0,0 l/m 0,2 km/h (0 Bft) O-NO 67 0 min 0,0 UV-I -4,3 C -2,9 C 0,0 km/h (0 Bft)
03.03.2013 01:17 -2,4 C 8,1 C -2,5 C -2,5 C -2,7 C 0,0 C 87 % 91 % 0 % 1021,6 hPa 0,0 l/m 0,0 km/h (0 Bft) S 180 0 min 0,0 UV-I -4,3 C -2,7 C 0,0 km/h (0 Bft)
03.03.2013 01:22 -2,5 C 8,1 C -2,3 C -2,5 C -2,5 C 0,0 C 87 % 91 % 0 % 1021,6 hPa 0,0 l/m 0,0 km/h (0 Bft) O-NO 67 0 min 0,0 UV-I -4,4 C -2,5 C 0,0 km/h (0 Bft)
03.03.2013 01:27 -2,5 C 8,1 C -2,1 C -2,4 C -2,4 C 0,1 C 87 % 91 % 0 % 1021,6 hPa 0,0 l/m 0,0 km/h (0 Bft) O-SO 112 0 min 0,0 UV-I -4,4 C -2,4 C 0,0 km/h (0 Bft)
03.03.2013 01:32 -2,3 C 8,1 C -2,1 C -2,3 C -2,3 C 0,0 C 87 % 91 % 0 % 1021,6 hPa 0,0 l/m 0,0 km/h (0 Bft) SO 135 0 min 0,0 UV-I -4,2 C -2,3 C 0,0 km/h (0 Bft)
03.03.2013 01:37 -2,4 C 8,1 C -1,9 C -2,2 C -2,2 C 0,2 C 87 % 91 % 0 % 1021,8 hPa 0,0 l/m 0,0 km/h (0 Bft) N-NO 22 0 min 0,0 UV-I -4,3 C -2,2 C 0,0 km/h (0 Bft)
03.03.2013 01:42 -2,4 C 8,1 C -2,1 C -2,2 C -2,2 C 0,2 C 87 % 91 % 0 % 1021,8 hPa 0,0 l/m 0,2 km/h (0 Bft) SW 225 0 min 0,0 UV-I -4,3 C -2,2 C 0,0 km/h (0 Bft)
03.03.2013 01:47 -2,4 C 8,1 C -2,0 C -2,2 C -2,2 C 0,2 C 87 % 91 % 0 % 1021,8 hPa 0,0 l/m 0,2 km/h (0 Bft) O-NO 67 0 min 0,0 UV-I -4,3 C -2,2 C 0,0 km/h (0 Bft)
03.03.2013 01:52 -2,3 C 8,1 C -1,7 C -2,2 C -2,2 C 0,1 C 88 % 91 % 0 % 1021,8 hPa 0,0 l/m 0,3 km/h (0 Bft) SW 225 0 min 0,0 UV-I -4,0 C -2,2 C 3,5 km/h (1 Bft)
03.03.2013 01:57 -2,3 C 8,0 C -1,5 C -2,0 C -2,0 C 0,3 C 88 % 91 % 0 % 1022,0 hPa 0,0 l/m 1,1 km/h (1 Bft) S-SO 157 0 min 0,0 UV-I -4,0 C -2,0 C 2,1 km/h (1 Bft)
03.03.2013 02:02 -2,1 C 8,0 C -1,3 C -1,7 C -1,7 C 0,4 C 88 % 91 % 0 % 1022,0 hPa 0,0 l/m 1,4 km/h (1 Bft) S 180 0 min 0,0 UV-I -3,8 C -1,7 C 2,1 km/h (1 Bft)
03.03.2013 02:07 -2,1 C 8,0 C -1,3 C -1,6 C -1,6 C 0,5 C 88 % 91 % 0 % 1022,0 hPa 0,0 l/m 0,6 km/h (0 Bft) SW 225 0 min 0,0 UV-I -3,8 C -1,6 C 2,4 km/h (1 Bft)
03.03.2013 02:12 -2,1 C 8,1 C -1,3 C -1,5 C -1,5 C 0,6 C 88 % 91 % 0 % 1022,0 hPa 0,0 l/m 1,6 km/h (1 Bft) W-SW 247 0 min 0,0 UV-I -3,8 C -1,5 C 3,2 km/h (1 Bft)
03.03.2013 02:17 -1,9 C 8,0 C -1,2 C -1,8 C -1,8 C 0,1 C 88 % 91 % 0 % 1021,6 hPa 0,0 l/m 2,6 km/h (1 Bft) W-SW 247 0 min 0,0 UV-I -3,6 C -1,8 C 3,9 km/h (1 Bft)
03.03.2013 02:22 -2,0 C 8,0 C -1,2 C -1,5 C -1,5 C 0,5 C 88 % 91 % 0 % 1021,6 hPa 0,0 l/m 2,4 km/h (1 Bft) W 270 0 min 0,0 UV-I -3,7 C -1,5 C 0,0 km/h (0 Bft)
03.03.2013 02:27 -1,9 C 8,1 C -1,1 C -1,4 C -1,4 C 0,5 C 87 % 91 % 0 % 1021,6 hPa 0,0 l/m 1,4 km/h (1 Bft) S-SW 202 0 min 0,0 UV-I -3,8 C -1,4 C 0,0 km/h (0 Bft)
03.03.2013 02:32 -1,9 C 8,1 C -1,1 C -1,4 C -1,4 C 0,5 C 87 % 91 % 0 % 1021,6 hPa 0,0 l/m 1,0 km/h (0 Bft) W 270 0 min 0,0 UV-I -3,8 C -1,4 C 0,0 km/h (0 Bft)
03.03.2013 02:37 -1,9 C 8,1 C -1,1 C -1,4 C -1,4 C 0,5 C 87 % 91 % 0 % 1021,7 hPa 0,0 l/m 0,8 km/h (0 Bft) S-SW 202 0 min 0,0 UV-I -3,8 C -1,4 C 0,0 km/h (0 Bft)
03.03.2013 02:42 -1,9 C 8,0 C -0,9 C -1,4 C -1,4 C 0,5 C 87 % 91 % 0 % 1021,7 hPa 0,0 l/m 0,6 km/h (0 Bft) SW 225 0 min 0,0 UV-I -3,8 C -1,4 C 2,7 km/h (1 Bft)
03.03.2013 02:47 -1,9 C 8,1 C -0,9 C -1,3 C -1,3 C 0,6 C 87 % 91 % 0 % 1021,7 hPa 0,0 l/m 0,8 km/h (0 Bft) W-SW 247 0 min 0,0 UV-I -3,8 C -1,3 C 0,0 km/h (0 Bft)
03.03.2013 02:52 -1,9 C 8,0 C -0,9 C -1,3 C -1,3 C 0,6 C 87 % 90 % 0 % 1021,7 hPa 0,0 l/m 1,3 km/h (1 Bft) SW 225 0 min 0,0 UV-I -3,8 C -1,3 C 2,3 km/h (1 Bft)
03.03.2013 02:57 -1,9 C 8,0 C -0,9 C -1,3 C -1,3 C 0,6 C 87 % 90 % 0 % 1021,1 hPa 0,0 l/m 1,3 km/h (1 Bft) W-SW 247 0 min 0,0 UV-I -3,8 C -1,3 C 2,7 km/h (1 Bft)
03.03.2013 03:02 -1,9 C 8,0 C -0,9 C -1,2 C -1,2 C 0,7 C 87 % 90 % 0 % 1021,1 hPa 0,0 l/m 0,8 km/h (0 Bft) O-NO 67 0 min 0,0 UV-I -3,8 C -1,2 C 0,0 km/h (0 Bft)
03.03.2013 03:07 -1,9 C 8,0 C -0,9 C -1,2 C -1,2 C 0,7 C 87 % 90 % 0 % 1021,1 hPa 0,0 l/m 0,2 km/h (0 Bft) NW 315 0 min 0,0 UV-I -3,8 C -1,2 C 0,0 km/h (0 Bft)
03.03.2013 03:12 -1,9 C 8,0 C -0,9 C -1,2 C -1,2 C 0,7 C 87 % 90 % 0 % 1021,1 hPa 0,0 l/m 0,2 km/h (0 Bft) W-SW 247 0 min 0,0 UV-I -3,8 C -1,2 C 2,3 km/h (1 Bft)
03.03.2013 03:17 -1,9 C 8,0 C -0,9 C -1,2 C -1,2 C 0,7 C 87 % 90 % 0 % 1021,1 hPa 0,0 l/m 0,5 km/h (0 Bft) SW 225 0 min 0,0 UV-I -3,8 C -1,2 C 2,9 km/h (1 Bft)
03.03.2013 03:22 -1,7 C 8,0 C -0,9 C -1,2 C -1,2 C 0,5 C 88 % 90 % 0 % 1021,1 hPa 0,0 l/m 0,8 km/h (0 Bft) SW 225 0 min 0,0 UV-I -3,4 C -1,2 C 0,0 km/h (0 Bft)
03.03.2013 03:27 -1,7 C 8,0 C -0,9 C -1,1 C -1,1 C 0,6 C 88 % 90 % 0 % 1021,1 hPa 0,0 l/m 0,6 km/h (0 Bft) SW 225 0 min 0,0 UV-I -3,4 C -1,1 C 1,6 km/h (1 Bft)
03.03.2013 03:32 -1,7 C 8,0 C -0,9 C -1,1 C -1,1 C 0,6 C 88 % 90 % 0 % 1021,1 hPa 0,0 l/m 0,6 km/h (0 Bft) O 90 0 min 0,0 UV-I -3,4 C -1,1 C 0,0 km/h (0 Bft)
03.03.2013 03:37 -1,8 C 8,0 C -0,9 C -1,2 C -1,2 C 0,6 C 87 % 90 % 0 % 1020,9 hPa 0,0 l/m 0,8 km/h (0 Bft) O-NO 67 0 min 0,0 UV-I -3,7 C -1,2 C 0,0 km/h (0 Bft)
03.03.2013 03:42 -1,7 C 8,0 C -1,0 C -1,3 C -1,3 C 0,4 C 88 % 90 % 0 % 1020,9 hPa 0,0 l/m 1,3 km/h (1 Bft) S-SO 157 0 min 0,0 UV-I -3,4 C -1,3 C 3,4 km/h (1 Bft)
03.03.2013 03:47 -1,7 C 8,0 C -0,9 C -1,7 C -1,7 C 0,0 C 88 % 90 % 0 % 1020,9 hPa 0,0 l/m 2,6 km/h (1 Bft) S 180 0 min 0,0 UV-I -3,4 C -1,7 C 4,5 km/h (1 Bft)
03.03.2013 03:52 -1,7 C 8,0 C -0,9 C -2,0 C -2,6 C 0,0 C 88 % 90 % 0 % 1020,9 hPa 0,0 l/m 3,9 km/h (1 Bft) SW 225 0 min 0,0 UV-I -3,4 C -2,6 C 6,8 km/h (2 Bft)
03.03.2013 03:57 -1,8 C 8,0 C -0,9 C -1,9 C -2,2 C 0,0 C 87 % 90 % 0 % 1021,1 hPa 0,0 l/m 3,5 km/h (1 Bft) W 270 0 min 0,0 UV-I -3,7 C -2,2 C 3,9 km/h (1 Bft)
03.03.2013 04:02 -1,7 C 7,9 C -0,9 C -1,9 C -2,2 C 0,0 C 88 % 90 % 0 % 1021,1 hPa 0,0 l/m 3,5 km/h (1 Bft) W-SW 247 0 min 0,0 UV-I -3,4 C -2,2 C 5,1 km/h (1 Bft)
03.03.2013 04:07 -1,7 C 7,9 C -0,9 C -2,0 C -2,5 C 0,0 C 87 % 90 % 0 % 1021,1 hPa 0,0 l/m 4,3 km/h (1 Bft) W 270 0 min 0,0 UV-I -3,6 C -2,5 C 7,7 km/h (2 Bft)
03.03.2013 04:12 -1,7 C 7,9 C -0,9 C -2,0 C -2,5 C 0,0 C 87 % 90 % 0 % 1021,1 hPa 0,0 l/m 4,5 km/h (1 Bft) SW 225 0 min 0,0 UV-I -3,6 C -2,5 C 9,7 km/h (2 Bft)
03.03.2013 04:17 -1,6 C 7,9 C -0,9 C -1,7 C -2,0 C 0,0 C 87 % 90 % 0 % 1021,1 hPa 0,0 l/m 3,9 km/h (1 Bft) W-SW 247 0 min 0,0 UV-I -3,5 C -2,0 C 4,7 km/h (1 Bft)
03.03.2013 04:22 -1,5 C 7,9 C -0,9 C -1,9 C -2,7 C 0,0 C 87 % 90 % 0 % 1021,1 hPa 0,0 l/m 5,5 km/h (1 Bft) SW 225 0 min 0,0 UV-I -3,4 C -4,9 C 10,9 km/h (2 Bft)
03.03.2013 04:27 -1,5 C 7,9 C -0,8 C -2,1 C -3,4 C 0,0 C 87 % 90 % 0 % 1021,1 hPa 0,0 l/m 7,2 km/h (2 Bft) SW 225 0 min 0,0 UV-I -3,4 C -6,4 C 10,8 km/h (2 Bft)
03.03.2013 04:32 -1,5 C 7,9 C -0,7 C -1,9 C -4,0 C 0,0 C 87 % 90 % 0 % 1021,1 hPa 0,0 l/m 9,2 km/h (2 Bft) N-NW 337 0 min 0,0 UV-I -3,4 C -7,8 C 4,3 km/h (1 Bft)
03.03.2013 04:37 -1,5 C 7,9 C -0,9 C -1,9 C -3,7 C 0,0 C 87 % 90 % 0 % 1020,9 hPa 0,0 l/m 8,0 km/h (2 Bft) W-SW 247 0 min 0,0 UV-I -3,4 C -7,1 C 8,7 km/h (2 Bft)
03.03.2013 04:42 -1,5 C 7,9 C -0,9 C -2,2 C -3,6 C 0,0 C 87 % 90 % 0 % 1020,9 hPa 0,0 l/m 7,4 km/h (2 Bft) W-SW 247 0 min 0,0 UV-I -3,4 C -6,7 C 7,9 km/h (2 Bft)
03.03.2013 04:47 -1,3 C 7,9 C -0,9 C -1,8 C -4,1 C 0,0 C 86 % 90 % 0 % 1020,9 hPa 0,0 l/m 9,0 km/h (2 Bft) W-SW 247 0 min 0,0 UV-I -3,3 C -7,9 C 10,6 km/h (2 Bft)
03.03.2013 04:52 -1,3 C 7,9 C -0,9 C -1,8 C -3,8 C 0,0 C 87 % 90 % 0 % 1020,9 hPa 0,0 l/m 8,0 km/h (2 Bft) SO 135 0 min 0,0 UV-I -3,2 C -7,2 C 6,9 km/h (2 Bft)
03.03.2013 04:57 -1,5 C 7,9 C -0,9 C -2,1 C -3,3 C 0,0 C 87 % 90 % 0 % 1021,1 hPa 0,0 l/m 6,6 km/h (2 Bft) SW 225 0 min 0,0 UV-I -3,4 C -6,1 C 6,8 km/h (2 Bft)
03.03.2013 05:02 -1,5 C 7,9 C -0,9 C -1,9 C -2,8 C 0,0 C 87 % 90 % 0 % 1021,1 hPa 0,0 l/m 5,8 km/h (2 Bft) W-NW 292 0 min 0,0 UV-I -3,4 C -5,2 C 7,6 km/h (2 Bft)
03.03.2013 05:07 -1,3 C 7,9 C -0,7 C -1,9 C -3,0 C 0,0 C 87 % 90 % 0 % 1021,1 hPa 0,0 l/m 6,1 km/h (2 Bft) W-SW 247 0 min 0,0 UV-I -3,2 C -5,5 C 6,8 km/h (2 Bft)
03.03.2013 05:12 -1,5 C 8,0 C -0,8 C -2,1 C -3,3 C 0,0 C 87 % 90 % 0 % 1021,1 hPa 0,0 l/m 7,1 km/h (2 Bft) W-SW 247 0 min 0,0 UV-I -3,4 C -6,3 C 11,4 km/h (2 Bft)
03.03.2013 05:17 -1,5 C 8,0 C -0,8 C -1,9 C -3,7 C 0,0 C 87 % 90 % 0 % 1020,9 hPa 0,0 l/m 8,5 km/h (2 Bft) W-SW 247 0 min 0,0 UV-I -3,4 C -7,3 C 14,8 km/h (3 Bft)
03.03.2013 05:22 -1,3 C 8,0 C -0,7 C -1,8 C -4,1 C 0,0 C 87 % 90 % 0 % 1020,9 hPa 0,0 l/m 9,8 km/h (2 Bft) SW 225 0 min 0,0 UV-I -3,2 C -8,2 C 9,3 km/h (2 Bft)
03.03.2013 05:27 -1,3 C 8,0 C -0,7 C -1,9 C -4,2 C 0,0 C 87 % 90 % 0 % 1020,9 hPa 0,0 l/m 10,0 km/h (2 Bft) S-SW 202 0 min 0,0 UV-I -3,2 C -8,3 C 12,7 km/h (3 Bft)
03.03.2013 05:32 -1,3 C 8,0 C -0,7 C -1,9 C -4,1 C 0,0 C 87 % 90 % 0 % 1020,9 hPa 0,0 l/m 10,1 km/h (2 Bft) SW 225 0 min 0,0 UV-I -3,2 C -8,2 C 8,5 km/h (2 Bft)
03.03.2013 05:37 -1,3 C 8,0 C -0,7 C -2,2 C -4,1 C 0,0 C 87 % 90 % 0 % 1020,3 hPa 0,0 l/m 10,3 km/h (2 Bft) S 180 0 min 0,0 UV-I -3,2 C -8,3 C 17,2 km/h (3 Bft)
03.03.2013 05:42 -1,3 C 8,0 C -0,7 C -2,2 C -4,1 C 0,0 C 87 % 90 % 0 % 1020,3 hPa 0,0 l/m 10,0 km/h (2 Bft) W-SW 247 0 min 0,0 UV-I -3,2 C -8,2 C 10,0 km/h (2 Bft)
03.03.2013 05:47 -1,3 C 8,0 C -0,7 C -2,2 C -4,1 C 0,0 C 87 % 90 % 0 % 1020,3 hPa 0,0 l/m 10,1 km/h (2 Bft) W-SW 247 0 min 0,0 UV-I -3,2 C -8,2 C 15,3 km/h (3 Bft)
03.03.2013 05:52 -1,5 C 8,1 C -0,7 C -2,4 C -4,1 C 0,0 C 88 % 90 % 0 % 1020,3 hPa 0,0 l/m 9,8 km/h (2 Bft) W-SW 247 0 min 0,0 UV-I -3,2 C -8,2 C 11,6 km/h (2 Bft)
03.03.2013 05:57 -1,6 C 8,1 C -0,7 C -2,1 C -4,2 C 0,0 C 88 % 90 % 0 % 1020,6 hPa 0,0 l/m 10,0 km/h (2 Bft) W-SW 247 0 min 0,0 UV-I -3,3 C -8,3 C 11,6 km/h (2 Bft)
03.03.2013 06:02 -1,5 C 8,1 C -0,7 C -2,0 C -4,1 C 0,0 C 88 % 90 % 0 % 1020,6 hPa 0,0 l/m 9,8 km/h (2 Bft) SW 225 0 min 0,0 UV-I -3,2 C -8,2 C 10,6 km/h (2 Bft)
03.03.2013 06:07 -1,7 C 8,1 C -0,7 C -2,1 C -4,0 C 0,0 C 88 % 90 % 0 % 1020,6 hPa 0,0 l/m 9,3 km/h (2 Bft) W-SW 247 0 min 0,0 UV-I -3,4 C -7,9 C 8,2 km/h (2 Bft)
03.03.2013 06:12 -1,7 C 8,1 C -0,7 C -2,1 C -3,7 C 0,0 C 88 % 90 % 0 % 1020,6 hPa 0,0 l/m 8,5 km/h (2 Bft) W 270 0 min 0,0 UV-I -3,4 C -7,3 C 12,7 km/h (3 Bft)
03.03.2013 06:17 -1,7 C 8,1 C -0,7 C -2,0 C -3,6 C 0,0 C 88 % 90 % 0 % 1020,3 hPa 0,0 l/m 7,9 km/h (2 Bft) W 270 0 min 0,0 UV-I -3,4 C -6,9 C 9,8 km/h (2 Bft)
03.03.2013 06:22 -1,7 C 8,1 C -0,7 C -2,3 C -3,6 C 0,0 C 88 % 90 % 0 % 1020,3 hPa 0,0 l/m 8,0 km/h (2 Bft) W-SW 247 0 min 0,0 UV-I -3,4 C -7,0 C 9,0 km/h (2 Bft)
03.03.2013 06:27 -1,7 C 8,1 C -0,7 C -2,0 C -3,7 C 0,0 C 88 % 90 % 0 % 1020,3 hPa 0,0 l/m 8,2 km/h (2 Bft) SW 225 0 min 0,0 UV-I -3,4 C -7,2 C 11,6 km/h (2 Bft)
03.03.2013 06:32 -1,7 C 8,1 C -0,7 C -2,0 C -3,6 C 0,0 C 89 % 90 % 0 % 1020,3 hPa 0,0 l/m 8,0 km/h (2 Bft) SW 225 0 min 0,0 UV-I -3,3 C -7,0 C 11,6 km/h (2 Bft)
03.03.2013 06:37 -1,7 C 8,1 C -0,7 C -2,3 C -3,4 C 0,0 C 89 % 90 % 0 % 1020,2 hPa 0,0 l/m 7,6 km/h (2 Bft) SW 225 0 min 0,0 UV-I -3,3 C -6,6 C 9,2 km/h (2 Bft)
03.03.2013 06:42 -1,7 C 8,1 C -0,7 C -2,3 C -3,4 C 0,0 C 89 % 90 % 0 % 1020,2 hPa 0,0 l/m 7,6 km/h (2 Bft) SW 225 0 min 0,0 UV-I -3,3 C -6,6 C 11,7 km/h (2 Bft)
03.03.2013 06:47 -1,7 C 8,1 C -0,7 C -2,0 C -3,6 C 0,0 C 89 % 90 % 0 % 1020,2 hPa 0,0 l/m 7,9 km/h (2 Bft) S 180 0 min 0,0 UV-I -3,3 C -6,9 C 7,7 km/h (2 Bft)
03.03.2013 06:52 -1,7 C 8,1 C -0,7 C -2,0 C -3,7 C 0,0 C 89 % 90 % 0 % 1020,2 hPa 0,0 l/m 8,4 km/h (2 Bft) W-SW 247 0 min 0,0 UV-I -3,3 C -7,2 C 9,5 km/h (2 Bft)
03.03.2013 06:57 -1,7 C 8,1 C -0,7 C -2,0 C -3,6 C 0,0 C 89 % 90 % 0 % 1020,2 hPa 0,0 l/m 7,9 km/h (2 Bft) W-SW 247 0 min 0,0 UV-I -3,3 C -6,9 C 10,5 km/h (2 Bft)
03.03.2013 07:02 -1,7 C 8,1 C -0,5 C -2,3 C -3,6 C 0,0 C 89 % 90 % 0 % 1020,2 hPa 0,0 l/m 8,0 km/h (2 Bft) S 180 0 min 0,0 UV-I -3,3 C -7,0 C 11,6 km/h (2 Bft)
03.03.2013 07:07 -1,7 C 8,1 C -0,5 C -2,3 C -3,6 C 0,0 C 89 % 90 % 0 % 1020,2 hPa 0,0 l/m 8,0 km/h (2 Bft) W-SW 247 0 min 0,0 UV-I -3,3 C -7,0 C 10,8 km/h (2 Bft)
03.03.2013 07:12 -1,7 C 8,1 C -0,7 C -2,3 C -3,4 C 0,0 C 89 % 90 % 0 % 1020,2 hPa 0,0 l/m 7,4 km/h (2 Bft) SW 225 0 min 0,0 UV-I -3,3 C -6,5 C 10,1 km/h (2 Bft)
03.03.2013 07:17 -1,7 C 8,1 C -0,5 C -2,3 C -3,4 C 0,0 C 89 % 90 % 0 % 1020,5 hPa 0,0 l/m 7,6 km/h (2 Bft) W-SW 247 0 min 0,0 UV-I -3,3 C -6,6 C 13,4 km/h (3 Bft)
03.03.2013 07:22 -1,7 C 8,1 C -0,7 C -2,0 C -3,6 C 0,0 C 89 % 90 % 0 % 1020,5 hPa 0,0 l/m 7,9 km/h (2 Bft) W-SW 247 0 min 0,0 UV-I -3,3 C -6,9 C 10,3 km/h (2 Bft)
03.03.2013 07:27 -1,7 C 8,1 C -0,5 C -2,0 C -3,7 C 0,0 C 89 % 90 % 0 % 1020,5 hPa 0,0 l/m 8,5 km/h (2 Bft) W-SW 247 0 min 0,0 UV-I -3,3 C -7,3 C 5,5 km/h (1 Bft)
03.03.2013 07:32 -1,7 C 8,1 C -0,5 C -2,3 C -3,4 C 0,0 C 89 % 90 % 0 % 1020,5 hPa 0,0 l/m 7,6 km/h (2 Bft) SW 225 0 min 0,0 UV-I -3,3 C -6,6 C 5,3 km/h (1 Bft)
03.03.2013 07:37 -1,7 C 8,1 C -0,6 C -2,2 C -3,3 C 0,0 C 89 % 90 % 0 % 1020,6 hPa 0,0 l/m 7,4 km/h (2 Bft) W-SW 247 0 min 0,0 UV-I -3,3 C -6,4 C 11,6 km/h (2 Bft)
03.03.2013 07:42 -1,5 C 8,1 C -0,5 C -2,1 C -3,3 C 0,0 C 89 % 90 % 0 % 1020,6 hPa 0,0 l/m 7,9 km/h (2 Bft) W-SW 247 0 min 0,0 UV-I -3,1 C -6,6 C 6,4 km/h (2 Bft)
03.03.2013 07:47 -1,6 C 8,1 C -0,5 C -1,8 C -3,1 C 0,0 C 89 % 90 % 0 % 1020,6 hPa 0,0 l/m 7,7 km/h (2 Bft) W-SW 247 0 min 0,0 UV-I -3,2 C -6,3 C 8,9 km/h (2 Bft)
03.03.2013 07:52 -1,5 C 8,1 C -0,4 C -1,8 C -2,3 C 0,0 C 89 % 91 % 0 % 1020,6 hPa 0,0 l/m 6,0 km/h (2 Bft) W-SW 247 0 min 0,0 UV-I -3,1 C -4,7 C 5,5 km/h (1 Bft)
03.03.2013 07:57 -1,5 C 8,1 C -0,3 C -1,6 C -1,9 C 0,0 C 89 % 91 % 0 % 1020,6 hPa 0,0 l/m 5,5 km/h (1 Bft) W-SW 247 0 min 0,0 UV-I -3,1 C -4,0 C 6,3 km/h (2 Bft)
03.03.2013 08:02 -1,5 C 8,1 C -0,3 C -1,7 C -2,2 C 0,0 C 89 % 91 % 0 % 1020,6 hPa 0,0 l/m 6,1 km/h (2 Bft) SW 225 0 min 0,0 UV-I -3,1 C -4,6 C 9,0 km/h (2 Bft)
03.03.2013 08:07 -1,3 C 8,1 C -0,3 C -1,6 C -2,3 C 0,0 C 89 % 91 % 0 % 1020,6 hPa 0,0 l/m 6,4 km/h (2 Bft) SW 225 0 min 0,0 UV-I -2,9 C -4,8 C 7,1 km/h (2 Bft)
03.03.2013 08:12 -1,3 C 8,1 C -0,1 C -1,7 C -2,4 C 0,0 C 89 % 91 % 0 % 1020,6 hPa 0,0 l/m 7,1 km/h (2 Bft) W-SW 247 0 min 0,0 UV-I -2,9 C -5,2 C 8,2 km/h (2 Bft)
03.03.2013 08:17 -1,3 C 8,1 C -0,1 C -1,6 C -2,2 C 0,0 C 89 % 91 % 0 % 1020,8 hPa 0,0 l/m 6,8 km/h (2 Bft) S 180 0 min 0,0 UV-I -2,9 C -4,9 C 6,9 km/h (2 Bft)
03.03.2013 08:22 -1,3 C 8,1 C -0,1 C -1,5 C -1,8 C 0,0 C 89 % 90 % 0 % 1020,8 hPa 0,0 l/m 6,1 km/h (2 Bft) W-NW 292 0 min 0,0 UV-I -2,9 C -4,1 C 5,3 km/h (1 Bft)
03.03.2013 08:27 -1,3 C 8,1 C -0,1 C -1,4 C -1,6 C 0,0 C 89 % 90 % 0 % 1020,8 hPa 0,0 l/m 5,5 km/h (1 Bft) W-SW 247 0 min 0,0 UV-I -2,9 C -3,6 C 5,6 km/h (1 Bft)
03.03.2013 08:32 -1,3 C 8,1 C 0,1 C -1,3 C -1,4 C 0,0 C 89 % 90 % 0 % 1020,8 hPa 0,0 l/m 5,3 km/h (1 Bft) SW 225 0 min 0,0 UV-I -2,9 C -3,3 C 7,7 km/h (2 Bft)
03.03.2013 08:37 -1,2 C 8,0 C 0,0 C -1,3 C -1,5 C 0,0 C 89 % 90 % 0 % 1020,9 hPa 0,0 l/m 5,5 km/h (1 Bft) SW 225 0 min 0,0 UV-I -2,8 C -3,5 C 3,7 km/h (1 Bft)
03.03.2013 08:42 -1,1 C 8,0 C 0,2 C -1,2 C -1,5 C 0,0 C 88 % 90 % 0 % 1020,9 hPa 0,0 l/m 5,8 km/h (2 Bft) S 180 0 min 0,0 UV-I -2,8 C -3,7 C 6,8 km/h (2 Bft)
03.03.2013 08:47 -1,1 C 8,0 C 0,2 C -1,2 C -1,3 C 0,0 C 88 % 90 % 0 % 1020,9 hPa 0,0 l/m 5,6 km/h (1 Bft) W 270 0 min 0,0 UV-I -2,8 C -3,3 C 4,2 km/h (1 Bft)
03.03.2013 09:09 -0,9 C 8,0 C 0,4 C -0,8 C -0,8 C 0,1 C 88 % 90 % 3 % 1021,2 hPa 0,0 l/m 5,3 km/h (1 Bft) W-SW 247 0 min 0,0 UV-I -2,6 C -2,6 C 8,2 km/h (2 Bft)
03.03.2013 09:15 -0,8 C 8,0 C 0,4 C -0,7 C -0,7 C 0,1 C 88 % 90 % 3 % 1021,2 hPa 0,0 l/m 5,6 km/h (1 Bft) SW 225 0 min 0,0 UV-I -2,5 C -2,7 C 4,5 km/h (1 Bft)
03.03.2013 09:20 -0,7 C 8,0 C 0,5 C -0,4 C -0,4 C 0,3 C 88 % 90 % 8 % 1021,3 hPa 0,0 l/m 5,0 km/h (1 Bft) W-SW 247 0 min 0,0 UV-I -2,4 C -2,0 C 4,8 km/h (1 Bft)
03.03.2013 09:25 -0,5 C 8,0 C 0,7 C -0,3 C -0,3 C 0,2 C 88 % 89 % 5 % 1021,3 hPa 0,0 l/m 4,8 km/h (1 Bft) W-SW 247 0 min 0,0 UV-I -2,2 C -1,8 C 5,6 km/h (1 Bft)
03.03.2013 09:30 -0,6 C 8,0 C 0,6 C -0,4 C -0,4 C 0,2 C 88 % 89 % 5 % 1021,3 hPa 0,0 l/m 5,5 km/h (1 Bft) W-SW 247 0 min 0,0 UV-I -2,3 C -2,3 C 5,0 km/h (1 Bft)
03.03.2013 09:35 -0,5 C 8,0 C 0,8 C -0,5 C -0,5 C 0,0 C 87 % 89 % 0 % 1021,3 hPa 0,0 l/m 6,1 km/h (2 Bft) SW 225 0 min 0,0 UV-I -2,4 C -2,6 C 9,0 km/h (2 Bft)
03.03.2013 09:40 -0,3 C 7,8 C 0,9 C -0,4 C -0,5 C 0,0 C 87 % 90 % 0 % 1022,1 hPa 0,0 l/m 6,9 km/h (2 Bft) W-NW 292 0 min 0,1 UV-I -2,2 C -2,9 C 7,6 km/h (2 Bft)
03.03.2013 09:45 -0,3 C 8,0 C 0,9 C -0,4 C -0,6 C 0,0 C 87 % 89 % 0 % 1022,1 hPa 0,0 l/m 7,1 km/h (2 Bft) W-SW 247 0 min 0,1 UV-I -2,2 C -3,1 C 9,0 km/h (2 Bft)
03.03.2013 09:50 -0,1 C 7,8 C 0,8 C -0,2 C -0,5 C 0,0 C 87 % 89 % 0 % 1022,1 hPa 0,0 l/m 6,9 km/h (2 Bft) W-SW 247 0 min 0,0 UV-I -2,0 C -2,9 C 8,4 km/h (2 Bft)
03.03.2013 09:55 -0,2 C 7,8 C 0,9 C -0,1 C -0,1 C 0,1 C 87 % 89 % 3 % 1022,1 hPa 0,0 l/m 5,8 km/h (2 Bft) W-SW 247 0 min 0,0 UV-I -2,1 C -2,1 C 9,3 km/h (2 Bft)
03.03.2013 10:00 -0,1 C 7,8 C 0,9 C -0,1 C -0,2 C 0,0 C 87 % 89 % 0 % 1021,5 hPa 0,0 l/m 6,0 km/h (2 Bft) W-SW 247 0 min 0,0 UV-I -2,0 C -2,3 C 8,0 km/h (2 Bft)
03.03.2013 10:05 -0,1 C 7,8 C 0,9 C -0,2 C -0,4 C 0,0 C 87 % 89 % 0 % 1021,5 hPa 0,0 l/m 6,6 km/h (2 Bft) W-SW 247 0 min 0,1 UV-I -2,0 C -2,7 C 5,6 km/h (1 Bft)
03.03.2013 10:10 -0,1 C 7,8 C 1,0 C -0,2 C -0,4 C 0,0 C 87 % 89 % 0 % 1021,5 hPa 0,0 l/m 7,1 km/h (2 Bft) W-SW 247 0 min 0,1 UV-I -2,0 C -2,9 C 8,7 km/h (2 Bft)
03.03.2013 10:15 0,1 C 7,8 C 1,2 C 0,2 C 0,2 C 0,1 C 86 % 89 % 3 % 1021,5 hPa 0,0 l/m 6,1 km/h (2 Bft) W-NW 292 0 min 0,1 UV-I -2,0 C -1,8 C 5,1 km/h (1 Bft)
03.03.2013 10:20 0,3 C 7,8 C 1,2 C 0,6 C 0,6 C 0,3 C 86 % 89 % 8 % 1021,3 hPa 0,0 l/m 6,0 km/h (2 Bft) W 270 0 min 0,2 UV-I -1,8 C -1,3 C 6,8 km/h (2 Bft)
03.03.2013 10:25 0,3 C 7,8 C 1,5 C 0,6 C 0,6 C 0,3 C 86 % 88 % 8 % 1021,3 hPa 0,0 l/m 6,6 km/h (2 Bft) W-SW 247 0 min 0,3 UV-I -1,8 C -1,6 C 6,9 km/h (2 Bft)
03.03.2013 10:30 0,4 C 7,8 C 1,5 C 0,4 C 0,4 C 0,0 C 86 % 88 % 0 % 1021,3 hPa 0,0 l/m 7,6 km/h (2 Bft) W 270 0 min 0,3 UV-I -1,7 C -2,1 C 8,4 km/h (2 Bft)
03.03.2013 10:35 0,5 C 7,8 C 1,3 C 0,5 C 0,4 C 0,0 C 86 % 88 % 0 % 1021,3 hPa 0,0 l/m 6,9 km/h (2 Bft) SW 225 0 min 0,2 UV-I -1,6 C -1,9 C 6,1 km/h (2 Bft)
03.03.2013 10:40 0,4 C 7,8 C 1,3 C 0,6 C 0,6 C 0,2 C 86 % 88 % 5 % 1021,3 hPa 0,0 l/m 6,0 km/h (2 Bft) W-SW 247 0 min 0,1 UV-I -1,7 C -1,3 C 6,1 km/h (2 Bft)
03.03.2013 10:45 0,5 C 7,8 C 1,5 C 0,7 C 0,7 C 0,2 C 86 % 89 % 5 % 1021,3 hPa 0,0 l/m 5,8 km/h (2 Bft) W-SW 247 0 min 0,1 UV-I -1,6 C -1,1 C 9,5 km/h (2 Bft)
03.03.2013 10:50 0,7 C 7,8 C 1,6 C 0,6 C 0,4 C 0,0 C 85 % 89 % 0 % 1021,3 hPa 0,0 l/m 7,1 km/h (2 Bft) SW 225 0 min 0,2 UV-I -1,5 C -2,0 C 7,7 km/h (2 Bft)
03.03.2013 10:55 0,7 C 7,8 C 1,6 C 0,8 C 0,8 C 0,1 C 85 % 89 % 3 % 1021,3 hPa 0,0 l/m 6,8 km/h (2 Bft) SW 225 0 min 0,3 UV-I -1,5 C -1,4 C 4,0 km/h (1 Bft)
03.03.2013 11:00 0,7 C 7,8 C 1,6 C 1,2 C 1,2 C 0,5 C 85 % 90 % 13 % 1021,5 hPa 0,0 l/m 6,0 km/h (2 Bft) W-SW 247 0 min 0,3 UV-I -1,5 C -0,6 C 7,4 km/h (2 Bft)
03.03.2013 11:05 0,9 C 7,8 C 1,9 C 1,4 C 1,4 C 0,5 C 85 % 90 % 13 % 1021,5 hPa 0,0 l/m 6,4 km/h (2 Bft) SW 225 0 min 0,3 UV-I -1,3 C -0,6 C 6,0 km/h (2 Bft)
03.03.2013 11:10 0,9 C 7,8 C 1,9 C 1,6 C 1,6 C 0,7 C 85 % 90 % 18 % 1021,5 hPa 0,0 l/m 6,3 km/h (2 Bft) S-SW 202 0 min 0,4 UV-I -1,3 C -0,3 C 9,2 km/h (2 Bft)
03.03.2013 11:15 1,1 C 7,7 C 1,8 C 1,4 C 1,4 C 0,3 C 85 % 90 % 8 % 1021,5 hPa 0,0 l/m 7,1 km/h (2 Bft) W-SW 247 0 min 0,4 UV-I -1,1 C -0,8 C 9,7 km/h (2 Bft)
03.03.2013 11:20 1,0 C 7,7 C 1,9 C 1,4 C 1,4 C 0,4 C 85 % 90 % 11 % 1021,6 hPa 0,0 l/m 6,9 km/h (2 Bft) SW 225 0 min 0,3 UV-I -1,2 C -0,7 C 9,0 km/h (2 Bft)
03.03.2013 11:25 1,1 C 7,7 C 2,0 C 2,0 C 2,0 C 0,9 C 85 % 90 % 24 % 1021,6 hPa 0,0 l/m 5,6 km/h (1 Bft) SW 225 0 min 0,4 UV-I -1,1 C 0,4 C 8,0 km/h (2 Bft)
03.03.2013 11:30 1,2 C 7,7 C 2,0 C 2,2 C 2,2 C 1,0 C 84 % 90 % 26 % 1021,6 hPa 0,0 l/m 5,3 km/h (1 Bft) W-SW 247 0 min 0,4 UV-I -1,2 C 0,8 C 12,4 km/h (3 Bft)
03.03.2013 11:35 1,3 C 7,7 C 2,1 C 1,9 C 1,9 C 0,6 C 84 % 90 % 16 % 1021,6 hPa 0,0 l/m 6,1 km/h (2 Bft) W-SW 247 0 min 0,3 UV-I -1,1 C 0,1 C 4,8 km/h (1 Bft)
03.03.2013 11:40 1,5 C 7,7 C 2,1 C 1,8 C 1,8 C 0,3 C 84 % 90 % 8 % 1021,8 hPa 0,0 l/m 6,9 km/h (2 Bft) W-SW 247 0 min 0,4 UV-I -0,9 C -0,3 C 9,7 km/h (2 Bft)
03.03.2013 11:45 1,5 C 7,7 C 2,1 C 1,7 C 1,7 C 0,2 C 83 % 90 % 5 % 1021,8 hPa 0,0 l/m 7,4 km/h (2 Bft) SW 225 0 min 0,4 UV-I -1,1 C -0,6 C 11,9 km/h (2 Bft)
03.03.2013 11:50 1,5 C 7,7 C 2,3 C 2,2 C 1,4 C 0,7 C 83 % 90 % 18 % 1021,8 hPa 0,0 l/m 8,2 km/h (2 Bft) W-SW 247 0 min 0,4 UV-I -1,1 C -1,2 C 11,9 km/h (2 Bft)
03.03.2013 11:55 1,7 C 7,7 C 2,3 C 1,6 C 1,4 C 0,0 C 83 % 90 % 0 % 1021,8 hPa 0,0 l/m 8,5 km/h (2 Bft) W-SW 247 0 min 0,4 UV-I -0,9 C -1,2 C 10,1 km/h (2 Bft)
03.03.2013 12:00 1,6 C 7,7 C 2,3 C 2,2 C 1,5 C 0,6 C 83 % 89 % 16 % 1022,5 hPa 0,0 l/m 8,5 km/h (2 Bft) SW 225 0 min 0,4 UV-I -1,0 C -1,1 C 11,6 km/h (2 Bft)
03.03.2013 12:05 1,6 C 7,7 C 2,4 C 2,4 C 1,8 C 0,8 C 83 % 89 % 21 % 1022,5 hPa 0,0 l/m 8,2 km/h (2 Bft) SW 225 0 min 0,5 UV-I -1,0 C -0,7 C 9,3 km/h (2 Bft)
03.03.2013 12:10 1,9 C 7,7 C 2,5 C 1,9 C 1,8 C 0,0 C 82 % 89 % 0 % 1022,5 hPa 0,0 l/m 8,7 km/h (2 Bft) W 270 0 min 0,5 UV-I -0,8 C -0,8 C 9,8 km/h (2 Bft)
03.03.2013 12:15 1,9 C 7,7 C 2,5 C 2,3 C 1,3 C 0,4 C 82 % 89 % 11 % 1022,5 hPa 0,0 l/m 9,5 km/h (2 Bft) W-SW 247 0 min 0,5 UV-I -0,8 C -1,6 C 11,6 km/h (2 Bft)
03.03.2013 12:20 1,9 C 7,7 C 2,5 C 2,3 C 1,6 C 0,4 C 82 % 89 % 11 % 1021,9 hPa 0,0 l/m 9,7 km/h (2 Bft) W-SW 247 0 min 0,5 UV-I -0,8 C -1,3 C 14,2 km/h (3 Bft)
03.03.2013 12:25 2,1 C 7,7 C 2,7 C 2,5 C 1,9 C 0,4 C 81 % 89 % 11 % 1021,9 hPa 0,0 l/m 8,9 km/h (2 Bft) W-SW 247 0 min 0,5 UV-I -0,8 C -0,8 C 10,0 km/h (2 Bft)
03.03.2013 12:30 2,1 C 7,7 C 2,6 C 2,5 C 2,5 C 0,4 C 81 % 89 % 11 % 1021,9 hPa 0,0 l/m 7,6 km/h (2 Bft) SW 225 0 min 0,6 UV-I -0,8 C 0,3 C 5,1 km/h (1 Bft)
03.03.2013 12:35 2,3 C 7,6 C 2,8 C 3,3 C 3,3 C 1,0 C 81 % 89 % 26 % 1021,9 hPa 0,0 l/m 6,3 km/h (2 Bft) O-NO 67 0 min 0,5 UV-I -0,6 C 1,7 C 12,2 km/h (2 Bft)
03.03.2013 12:41 2,4 C 7,6 C 2,8 C 3,1 C 3,1 C 0,7 C 80 % 89 % 18 % 1022,0 hPa 0,0 l/m 7,6 km/h (2 Bft) N 0 0 min 0,6 UV-I -0,7 C 1,0 C 8,4 km/h (2 Bft)
03.03.2013 13:00 2,7 C 7,6 C 2,9 C 3,7 C 3,7 C 1,0 C 79 % 89 % 26 % 1022,0 hPa 0,0 l/m 6,0 km/h (2 Bft) W-SW 247 0 min 0,5 UV-I -0,6 C 2,2 C 4,3 km/h (1 Bft)
03.03.2013 13:05 2,7 C 7,6 C 3,1 C 3,7 C 3,7 C 1,0 C 78 % 89 % 26 % 1022,0 hPa 0,0 l/m 6,8 km/h (2 Bft) W-SW 247 0 min 0,5 UV-I -0,7 C 2,0 C 7,1 km/h (2 Bft)
03.03.2013 13:10 2,8 C 7,6 C 2,9 C 3,9 C 3,9 C 1,1 C 78 % 88 % 29 % 1022,0 hPa 0,0 l/m 5,8 km/h (2 Bft) S 180 0 min 0,4 UV-I -0,6 C 2,5 C 2,9 km/h (1 Bft)
03.03.2013 13:15 2,8 C 7,6 C 2,8 C 3,7 C 3,7 C 0,9 C 77 % 88 % 24 % 1022,0 hPa 0,0 l/m 6,1 km/h (2 Bft) W-SW 247 0 min 0,4 UV-I -0,8 C 2,2 C 9,5 km/h (2 Bft)
03.03.2013 13:20 2,8 C 7,6 C 3,1 C 3,4 C 3,4 C 0,6 C 77 % 88 % 16 % 1022,4 hPa 0,0 l/m 7,4 km/h (2 Bft) N-NO 22 0 min 0,5 UV-I -0,8 C 1,4 C 11,7 km/h (2 Bft)
03.03.2013 13:25 2,9 C 7,6 C 3,1 C 3,5 C 3,5 C 0,6 C 76 % 87 % 16 % 1022,4 hPa 0,0 l/m 7,6 km/h (2 Bft) SW 225 0 min 0,6 UV-I -0,9 C 1,5 C 5,5 km/h (1 Bft)
03.03.2013 13:30 3,1 C 7,6 C 3,2 C 4,1 C 3,6 C 1,0 C 76 % 87 % 26 % 1022,4 hPa 0,0 l/m 7,7 km/h (2 Bft) SW 225 0 min 0,6 UV-I -0,7 C 1,6 C 5,6 km/h (1 Bft)
03.03.2013 13:35 3,0 C 7,6 C 3,2 C 3,6 C 3,6 C 0,6 C 75 % 87 % 16 % 1022,4 hPa 0,0 l/m 7,7 km/h (2 Bft) SW 225 0 min 0,6 UV-I -1,0 C 1,6 C 8,5 km/h (2 Bft)
03.03.2013 13:40 3,1 C 7,6 C 3,1 C 4,1 C 3,4 C 1,0 C 76 % 87 % 26 % 1022,0 hPa 0,0 l/m 7,7 km/h (2 Bft) W-SW 247 0 min 0,5 UV-I -0,7 C 1,3 C 15,6 km/h (3 Bft)
03.03.2013 13:45 3,0 C 7,6 C 3,1 C 3,2 C 3,2 C 0,2 C 75 % 86 % 5 % 1022,0 hPa 0,0 l/m 7,6 km/h (2 Bft) SW 225 0 min 0,4 UV-I -1,0 C 1,1 C 4,7 km/h (1 Bft)
03.03.2013 13:50 3,1 C 7,6 C 2,9 C 3,3 C 3,3 C 0,2 C 76 % 87 % 5 % 1022,0 hPa 0,0 l/m 6,9 km/h (2 Bft) W-SW 247 0 min 0,4 UV-I -0,7 C 1,5 C 6,6 km/h (2 Bft)
03.03.2013 13:55 3,0 C 7,6 C 2,9 C 3,3 C 3,3 C 0,3 C 76 % 87 % 8 % 1022,0 hPa 0,0 l/m 6,1 km/h (2 Bft) S-SW 202 0 min 0,2 UV-I -0,8 C 1,7 C 12,1 km/h (2 Bft)
03.03.2013 14:00 3,1 C 7,6 C 2,9 C 3,0 C 2,9 C 0,0 C 76 % 86 % 0 % 1022,1 hPa 0,0 l/m 7,1 km/h (2 Bft) NW 315 0 min 0,2 UV-I -0,7 C 0,9 C 10,3 km/h (2 Bft)
03.03.2013 14:05 3,0 C 7,6 C 3,1 C 3,6 C 3,6 C 0,6 C 77 % 87 % 16 % 1022,1 hPa 0,0 l/m 5,6 km/h (1 Bft) W-NW 292 0 min 0,3 UV-I -0,6 C 2,3 C 7,7 km/h (2 Bft)
03.03.2013 14:10 3,1 C 7,6 C 3,0 C 3,9 C 3,9 C 0,8 C 77 % 87 % 21 % 1022,1 hPa 0,0 l/m 5,0 km/h (1 Bft) W-SW 247 0 min 0,3 UV-I -0,5 C 2,8 C 4,8 km/h (1 Bft)
03.03.2013 14:15 3,1 C 7,6 C 3,1 C 4,2 C 4,2 C 1,1 C 77 % 87 % 29 % 1022,1 hPa 0,0 l/m 5,1 km/h (1 Bft) SW 225 0 min 0,3 UV-I -0,5 C 3,1 C 9,2 km/h (2 Bft)
03.03.2013 14:20 3,1 C 7,6 C 3,1 C 3,6 C 3,6 C 0,5 C 76 % 86 % 13 % 1022,1 hPa 0,0 l/m 6,4 km/h (2 Bft) SW 225 0 min 0,4 UV-I -0,7 C 2,0 C 11,1 km/h (2 Bft)
03.03.2013 14:25 3,1 C 7,6 C 3,0 C 3,8 C 2,9 C 0,7 C 77 % 85 % 18 % 1022,1 hPa 0,0 l/m 7,9 km/h (2 Bft) W 270 0 min 0,3 UV-I -0,5 C 0,7 C 6,8 km/h (2 Bft)
03.03.2013 14:30 3,1 C 7,6 C 3,1 C 3,2 C 3,2 C 0,1 C 77 % 86 % 3 % 1022,1 hPa 0,0 l/m 6,6 km/h (2 Bft) W 270 0 min 0,2 UV-I -0,5 C 1,4 C 4,5 km/h (1 Bft)
03.03.2013 14:35 3,0 C 7,6 C 2,9 C 3,3 C 3,3 C 0,3 C 76 % 86 % 8 % 1022,1 hPa 0,0 l/m 6,0 km/h (2 Bft) W 270 0 min 0,1 UV-I -0,8 C 1,8 C 5,5 km/h (1 Bft)
03.03.2013 14:40 3,0 C 7,6 C 2,9 C 3,2 C 3,2 C 0,2 C 76 % 86 % 5 % 1022,1 hPa 0,0 l/m 6,1 km/h (2 Bft) W-SW 247 0 min 0,1 UV-I -0,8 C 1,6 C 10,6 km/h (2 Bft)
03.03.2013 14:45 3,0 C 7,6 C 2,9 C 2,9 C 2,8 C 0,0 C 75 % 85 % 0 % 1022,1 hPa 0,0 l/m 6,6 km/h (2 Bft) S 180 0 min 0,1 UV-I -1,0 C 1,0 C 5,6 km/h (1 Bft)
03.03.2013 14:50 3,0 C 7,6 C 2,8 C 2,9 C 2,8 C 0,0 C 75 % 85 % 0 % 1022,1 hPa 0,0 l/m 6,3 km/h (2 Bft) W-SW 247 0 min 0,0 UV-I -1,0 C 1,1 C 4,5 km/h (1 Bft)
03.03.2013 14:55 3,1 C 7,6 C 2,8 C 3,6 C 3,6 C 0,5 C 75 % 86 % 13 % 1022,1 hPa 0,0 l/m 4,3 km/h (1 Bft) SW 225 0 min 0,0 UV-I -0,9 C 3,6 C 5,6 km/h (1 Bft)
03.03.2013 15:00 3,1 C 7,6 C 2,9 C 3,8 C 3,8 C 0,7 C 75 % 86 % 18 % 1022,5 hPa 0,0 l/m 4,0 km/h (1 Bft) W-SW 247 0 min 0,0 UV-I -0,9 C 3,8 C 7,6 km/h (2 Bft)
03.03.2013 15:05 3,1 C 7,6 C 2,8 C 3,4 C 3,4 C 0,3 C 75 % 86 % 8 % 1022,5 hPa 0,0 l/m 4,8 km/h (1 Bft) W-SW 247 0 min 0,0 UV-I -0,9 C 2,4 C 9,8 km/h (2 Bft)
03.03.2013 15:10 3,2 C 7,6 C 2,8 C 3,6 C 3,6 C 0,4 C 75 % 86 % 11 % 1022,5 hPa 0,0 l/m 4,8 km/h (1 Bft) W-SW 247 0 min 0,0 UV-I -0,8 C 2,6 C 5,8 km/h (2 Bft)
03.03.2013 15:15 3,1 C 7,6 C 2,8 C 3,4 C 3,4 C 0,3 C 75 % 85 % 8 % 1022,5 hPa 0,0 l/m 5,3 km/h (1 Bft) SW 225 0 min 0,0 UV-I -0,9 C 2,1 C 5,5 km/h (1 Bft)
03.03.2013 15:20 3,2 C 7,6 C 2,8 C 3,3 C 3,3 C 0,1 C 75 % 85 % 3 % 1022,2 hPa 0,0 l/m 5,6 km/h (1 Bft) W-SW 247 0 min 0,0 UV-I -0,8 C 1,9 C 7,7 km/h (2 Bft)
03.03.2013 15:25 3,2 C 7,6 C 2,8 C 3,2 C 3,2 C 0,0 C 75 % 84 % 0 % 1022,2 hPa 0,0 l/m 5,8 km/h (2 Bft) W 270 0 min 0,0 UV-I -0,8 C 1,7 C 9,8 km/h (2 Bft)
03.03.2013 15:30 3,2 C 7,6 C 2,8 C 3,2 C 3,1 C 0,0 C 75 % 85 % 0 % 1022,2 hPa 0,0 l/m 6,3 km/h (2 Bft) W-SW 247 0 min 0,0 UV-I -0,8 C 1,4 C 5,5 km/h (1 Bft)
03.03.2013 15:35 3,2 C 7,6 C 2,8 C 3,1 C 3,0 C 0,0 C 75 % 85 % 0 % 1022,2 hPa 0,0 l/m 6,0 km/h (2 Bft) W-SW 247 0 min 0,0 UV-I -0,8 C 1,4 C 9,3 km/h (2 Bft)
03.03.2013 15:40 3,2 C 7,6 C 2,8 C 3,1 C 2,9 C 0,0 C 75 % 84 % 0 % 1022,3 hPa 0,0 l/m 6,1 km/h (2 Bft) W-SW 247 0 min 0,0 UV-I -0,8 C 1,3 C 8,7 km/h (2 Bft)
03.03.2013 15:45 3,2 C 7,6 C 2,8 C 3,0 C 2,7 C 0,0 C 75 % 84 % 0 % 1022,3 hPa 0,0 l/m 6,6 km/h (2 Bft) W 270 0 min 0,0 UV-I -0,8 C 0,9 C 12,6 km/h (3 Bft)
03.03.2013 15:50 3,2 C 7,6 C 2,8 C 3,0 C 2,7 C 0,0 C 75 % 84 % 0 % 1022,3 hPa 0,0 l/m 6,6 km/h (2 Bft) SW 225 0 min 0,0 UV-I -0,8 C 0,9 C 6,8 km/h (2 Bft)
03.03.2013 15:55 3,2 C 7,6 C 2,8 C 3,1 C 2,9 C 0,0 C 75 % 85 % 0 % 1022,3 hPa 0,0 l/m 5,6 km/h (1 Bft) W-SW 247 0 min 0,0 UV-I -0,8 C 1,5 C 5,8 km/h (2 Bft)
03.03.2013 16:00 3,2 C 7,6 C 2,8 C 3,4 C 3,4 C 0,2 C 75 % 85 % 5 % 1022,3 hPa 0,0 l/m 4,5 km/h (1 Bft) SW 225 0 min 0,0 UV-I -0,8 C 3,4 C 6,3 km/h (2 Bft)
03.03.2013 16:05 3,2 C 7,6 C 2,8 C 3,1 C 2,9 C 0,0 C 75 % 84 % 0 % 1022,3 hPa 0,0 l/m 5,8 km/h (2 Bft) SW 225 0 min 0,0 UV-I -0,8 C 1,4 C 7,7 km/h (2 Bft)
03.03.2013 16:10 3,2 C 7,6 C 2,8 C 3,0 C 2,6 C 0,0 C 75 % 84 % 0 % 1022,3 hPa 0,0 l/m 6,3 km/h (2 Bft) W-SW 247 0 min 0,0 UV-I -0,8 C 0,9 C 5,6 km/h (1 Bft)
03.03.2013 16:15 3,1 C 7,6 C 2,8 C 3,0 C 2,8 C 0,0 C 76 % 84 % 0 % 1022,3 hPa 0,0 l/m 5,8 km/h (2 Bft) W-SW 247 0 min 0,0 UV-I -0,7 C 1,3 C 7,1 km/h (2 Bft)
03.03.2013 16:20 3,1 C 7,7 C 2,7 C 3,0 C 2,9 C 0,0 C 76 % 85 % 0 % 1022,4 hPa 0,0 l/m 5,3 km/h (1 Bft) W-SW 247 0 min 0,0 UV-I -0,7 C 1,6 C 4,2 km/h (1 Bft)
03.03.2013 16:25 3,1 C 7,7 C 2,7 C 3,2 C 3,2 C 0,1 C 77 % 85 % 3 % 1022,4 hPa 0,0 l/m 4,7 km/h (1 Bft) W-SW 247 0 min 0,0 UV-I -0,5 C 2,2 C 3,9 km/h (1 Bft)
03.03.2013 16:30 3,1 C 7,7 C 2,6 C 3,1 C 3,1 C 0,0 C 77 % 85 % 0 % 1022,4 hPa 0,0 l/m 4,7 km/h (1 Bft) W-SW 247 0 min 0,0 UV-I -0,5 C 2,1 C 9,3 km/h (2 Bft)
03.03.2013 16:35 3,0 C 7,7 C 2,5 C 2,9 C 2,6 C 0,0 C 77 % 85 % 0 % 1022,4 hPa 0,0 l/m 5,3 km/h (1 Bft) W-SW 247 0 min 0,0 UV-I -0,6 C 1,2 C 5,8 km/h (2 Bft)
03.03.2013 16:40 3,1 C 7,7 C 2,5 C 2,9 C 2,5 C 0,0 C 77 % 85 % 0 % 1022,6 hPa 0,0 l/m 5,3 km/h (1 Bft) SW 225 0 min 0,0 UV-I -0,5 C 1,1 C 5,0 km/h (1 Bft)
03.03.2013 16:45 3,0 C 7,7 C 2,4 C 2,9 C 2,8 C 0,0 C 77 % 85 % 0 % 1022,6 hPa 0,0 l/m 4,7 km/h (1 Bft) W-SW 247 0 min 0,0 UV-I -0,6 C 1,7 C 6,6 km/h (2 Bft)
03.03.2013 16:50 3,1 C 7,7 C 2,4 C 3,0 C 2,7 C 0,0 C 77 % 85 % 0 % 1022,6 hPa 0,0 l/m 4,5 km/h (1 Bft) W-SW 247 0 min 0,0 UV-I -0,5 C 2,7 C 4,5 km/h (1 Bft)
03.03.2013 16:55 2,9 C 7,7 C 2,4 C 2,8 C 2,6 C 0,0 C 77 % 85 % 0 % 1022,6 hPa 0,0 l/m 4,5 km/h (1 Bft) SW 225 0 min 0,0 UV-I -0,7 C 2,6 C 6,3 km/h (2 Bft)
03.03.2013 17:00 2,9 C 7,7 C 2,4 C 2,6 C 2,1 C 0,0 C 76 % 85 % 0 % 1022,8 hPa 0,0 l/m 5,5 km/h (1 Bft) W-SW 247 0 min 0,0 UV-I -0,9 C 0,6 C 10,0 km/h (2 Bft)
03.03.2013 17:05 2,9 C 7,7 C 2,3 C 2,7 C 2,3 C 0,0 C 77 % 85 % 0 % 1022,8 hPa 0,0 l/m 5,0 km/h (1 Bft) S-SO 157 0 min 0,0 UV-I -0,7 C 1,0 C 5,5 km/h (1 Bft)
03.03.2013 17:10 2,9 C 7,7 C 2,3 C 2,7 C 2,3 C 0,0 C 77 % 85 % 0 % 1022,8 hPa 0,0 l/m 4,8 km/h (1 Bft) W-NW 292 0 min 0,0 UV-I -0,7 C 1,1 C 4,3 km/h (1 Bft)
03.03.2013 17:15 2,8 C 7,7 C 2,2 C 2,5 C 1,8 C 0,0 C 77 % 85 % 0 % 1022,8 hPa 0,0 l/m 5,6 km/h (1 Bft) W-SW 247 0 min 0,0 UV-I -0,8 C 0,2 C 4,8 km/h (1 Bft)
03.03.2013 17:20 2,8 C 7,7 C 2,1 C 2,4 C 1,6 C 0,0 C 77 % 85 % 0 % 1022,5 hPa 0,0 l/m 5,8 km/h (2 Bft) SW 225 0 min 0,0 UV-I -0,8 C -0,1 C 8,9 km/h (2 Bft)
03.03.2013 17:25 2,7 C 7,7 C 2,0 C 2,3 C 1,4 C 0,0 C 77 % 85 % 0 % 1022,5 hPa 0,0 l/m 6,1 km/h (2 Bft) W-SW 247 0 min 0,0 UV-I -0,9 C -0,5 C 6,0 km/h (2 Bft)
03.03.2013 17:30 2,7 C 7,7 C 2,0 C 2,2 C 1,2 C 0,0 C 78 % 85 % 0 % 1022,5 hPa 0,0 l/m 6,1 km/h (2 Bft) W-SW 247 0 min 0,0 UV-I -0,7 C -0,7 C 6,0 km/h (2 Bft)
03.03.2013 17:35 2,7 C 7,7 C 2,0 C 2,3 C 1,5 C 0,0 C 78 % 85 % 0 % 1022,5 hPa 0,0 l/m 5,1 km/h (1 Bft) W-SW 247 0 min 0,0 UV-I -0,7 C 0,1 C 5,1 km/h (1 Bft)
03.03.2013 17:40 2,7 C 7,7 C 1,9 C 2,4 C 1,7 C 0,0 C 78 % 86 % 0 % 1022,5 hPa 0,0 l/m 4,7 km/h (1 Bft) W-SW 247 0 min 0,0 UV-I -0,7 C 0,5 C 6,9 km/h (2 Bft)
03.03.2013 17:45 2,6 C 7,7 C 1,9 C 2,3 C 1,8 C 0,0 C 78 % 86 % 0 % 1022,5 hPa 0,0 l/m 4,5 km/h (1 Bft) W-SW 247 0 min 0,0 UV-I -0,8 C 1,8 C 5,8 km/h (2 Bft)
03.03.2013 17:50 2,5 C 7,7 C 1,9 C 2,2 C 1,7 C 0,0 C 78 % 86 % 0 % 1022,5 hPa 0,0 l/m 4,5 km/h (1 Bft) SW 225 0 min 0,0 UV-I -0,9 C 1,7 C 5,1 km/h (1 Bft)
03.03.2013 17:55 2,5 C 7,7 C 1,9 C 2,2 C 1,6 C 0,0 C 78 % 86 % 0 % 1022,5 hPa 0,0 l/m 4,5 km/h (1 Bft) SW 225 0 min 0,0 UV-I -0,9 C 1,6 C 8,2 km/h (2 Bft)
03.03.2013 18:00 2,5 C 7,7 C 1,7 C 2,3 C 1,8 C 0,0 C 78 % 86 % 0 % 1022,8 hPa 0,0 l/m 4,0 km/h (1 Bft) W-SW 247 0 min 0,0 UV-I -0,9 C 1,8 C 2,3 km/h (1 Bft)
03.03.2013 18:05 2,4 C 7,7 C 1,7 C 2,2 C 1,9 C 0,0 C 78 % 86 % 0 % 1022,8 hPa 0,0 l/m 3,7 km/h (1 Bft) SW 225 0 min 0,0 UV-I -1,0 C 1,9 C 5,3 km/h (1 Bft)
03.03.2013 18:10 2,5 C 7,7 C 1,7 C 2,3 C 1,9 C 0,0 C 78 % 86 % 0 % 1022,8 hPa 0,0 l/m 3,7 km/h (1 Bft) W-SW 247 0 min 0,0 UV-I -0,9 C 1,9 C 5,1 km/h (1 Bft)
03.03.2013 18:15 2,4 C 7,7 C 1,6 C 2,1 C 1,6 C 0,0 C 78 % 86 % 0 % 1022,8 hPa 0,0 l/m 4,2 km/h (1 Bft) W-SW 247 0 min 0,0 UV-I -1,0 C 1,6 C 4,2 km/h (1 Bft)
03.03.2013 18:20 2,4 C 7,7 C 1,7 C 2,2 C 1,7 C 0,0 C 78 % 86 % 0 % 1023,4 hPa 0,0 l/m 4,0 km/h (1 Bft) S-SW 202 0 min 0,0 UV-I -1,0 C 1,7 C 3,2 km/h (1 Bft)
03.03.2013 18:25 2,3 C 7,7 C 1,6 C 2,2 C 2,1 C 0,0 C 78 % 86 % 0 % 1023,4 hPa 0,0 l/m 3,2 km/h (1 Bft) W-SW 247 0 min 0,0 UV-I -1,1 C 2,1 C 2,7 km/h (1 Bft)
03.03.2013 18:30 2,3 C 7,8 C 1,6 C 2,2 C 2,1 C 0,0 C 78 % 86 % 0 % 1023,4 hPa 0,0 l/m 2,9 km/h (1 Bft) W-SW 247 0 min 0,0 UV-I -1,1 C 2,1 C 3,2 km/h (1 Bft)
03.03.2013 18:35 2,3 C 7,8 C 1,5 C 2,2 C 2,0 C 0,0 C 79 % 86 % 0 % 1023,4 hPa 0,0 l/m 3,1 km/h (1 Bft) W-SW 247 0 min 0,0 UV-I -1,0 C 2,0 C 2,7 km/h (1 Bft)
03.03.2013 18:41 2,2 C 7,8 C 1,5 C 2,1 C 1,9 C 0,0 C 79 % 86 % 0 % 1023,4 hPa 0,0 l/m 3,1 km/h (1 Bft) N 0 0 min 0,0 UV-I -1,1 C 1,9 C 2,9 km/h (1 Bft)
03.03.2013 18:42 2,3 C 7,8 C 1,5 C 2,3 C 2,2 C 0,0 C 79 % 86 % 0 % 1023,4 hPa 0,0 l/m 2,7 km/h (1 Bft) W-SW 247 0 min 0,0 UV-I -1,0 C 2,2 C 3,5 km/h (1 Bft)
03.03.2013 18:47 2,3 C 7,8 C 1,5 C 2,1 C 1,8 C 0,0 C 79 % 86 % 0 % 1023,4 hPa 0,0 l/m 3,4 km/h (1 Bft) SW 225 0 min 0,0 UV-I -1,0 C 1,8 C 4,3 km/h (1 Bft)
03.03.2013 18:52 2,1 C 7,8 C 1,5 C 1,9 C 1,4 C 0,0 C 79 % 86 % 0 % 1023,4 hPa 0,0 l/m 3,7 km/h (1 Bft) W-SW 247 0 min 0,0 UV-I -1,2 C 1,4 C 4,2 km/h (1 Bft)
03.03.2013 18:57 2,1 C 7,8 C 1,4 C 1,9 C 1,6 C 0,0 C 79 % 86 % 0 % 1023,4 hPa 0,0 l/m 3,5 km/h (1 Bft) W 270 0 min 0,0 UV-I -1,2 C 1,6 C 4,7 km/h (1 Bft)
03.03.2013 19:02 2,1 C 7,8 C 1,5 C 1,9 C 1,4 C 0,0 C 79 % 86 % 0 % 1023,4 hPa 0,0 l/m 3,7 km/h (1 Bft) W-SW 247 0 min 0,0 UV-I -1,2 C 1,4 C 5,8 km/h (2 Bft)
03.03.2013 19:07 2,0 C 7,8 C 1,3 C 1,8 C 1,5 C 0,0 C 79 % 86 % 0 % 1023,4 hPa 0,0 l/m 3,9 km/h (1 Bft) W-SW 247 0 min 0,0 UV-I -1,2 C 1,5 C 7,1 km/h (2 Bft)
03.03.2013 19:29 2,0 C 7,8 C 1,2 C 2,0 C 2,0 C 0,0 C 79 % 86 % 0 % 1024,3 hPa 0,0 l/m 2,1 km/h (1 Bft) W-SW 247 0 min 0,0 UV-I -1,2 C 2,0 C 2,7 km/h (1 Bft)
03.03.2013 19:35 2,0 C 7,8 C 1,2 C 2,0 C 2,0 C 0,0 C 79 % 86 % 0 % 1024,3 hPa 0,0 l/m 2,6 km/h (1 Bft) W-SW 247 0 min 0,0 UV-I -1,2 C 2,0 C 3,1 km/h (1 Bft)
03.03.2013 19:40 2,0 C 7,8 C 1,2 C 1,9 C 1,8 C 0,0 C 79 % 87 % 0 % 1023,4 hPa 0,0 l/m 2,9 km/h (1 Bft) W-SW 247 0 min 0,0 UV-I -1,2 C 1,8 C 3,1 km/h (1 Bft)
03.03.2013 19:45 2,0 C 7,8 C 1,2 C 1,9 C 1,6 C 0,0 C 79 % 87 % 0 % 1023,4 hPa 0,0 l/m 3,2 km/h (1 Bft) W-SW 247 0 min 0,0 UV-I -1,2 C 1,6 C 3,4 km/h (1 Bft)
03.03.2013 19:50 1,9 C 7,8 C 1,3 C 1,8 C 1,5 C 0,0 C 79 % 86 % 0 % 1023,4 hPa 0,0 l/m 3,4 km/h (1 Bft) W 270 0 min 0,0 UV-I -1,3 C 1,5 C 4,8 km/h (1 Bft)
03.03.2013 19:55 2,0 C 7,8 C 1,2 C 1,8 C 1,3 C 0,0 C 79 % 86 % 0 % 1023,4 hPa 0,0 l/m 3,7 km/h (1 Bft) W-SW 247 0 min 0,0 UV-I -1,2 C 1,3 C 4,3 km/h (1 Bft)
03.03.2013 20:00 1,9 C 7,8 C 1,3 C 1,7 C 1,3 C 0,0 C 79 % 86 % 0 % 1023,4 hPa 0,0 l/m 3,7 km/h (1 Bft) W-SW 247 0 min 0,0 UV-I -1,3 C 1,3 C 5,3 km/h (1 Bft)
03.03.2013 20:05 1,9 C 7,8 C 1,2 C 1,9 C 1,8 C 0,0 C 79 % 86 % 0 % 1023,4 hPa 0,0 l/m 2,9 km/h (1 Bft) W-SW 247 0 min 0,0 UV-I -1,3 C 1,8 C 2,1 km/h (1 Bft)
03.03.2013 20:10 1,9 C 7,8 C 1,2 C 1,8 C 1,5 C 0,0 C 78 % 86 % 0 % 1023,4 hPa 0,0 l/m 3,4 km/h (1 Bft) SW 225 0 min 0,0 UV-I -1,5 C 1,5 C 6,9 km/h (2 Bft)
03.03.2013 20:15 2,0 C 7,8 C 1,2 C 1,8 C 1,3 C 0,0 C 79 % 86 % 0 % 1023,4 hPa 0,0 l/m 3,7 km/h (1 Bft) SW 225 0 min 0,0 UV-I -1,2 C 1,3 C 4,2 km/h (1 Bft)
03.03.2013 20:20 2,0 C 7,8 C 1,2 C 1,8 C 1,3 C 0,0 C 79 % 86 % 0 % 1023,9 hPa 0,0 l/m 3,7 km/h (1 Bft) W 270 0 min 0,0 UV-I -1,2 C 1,3 C 3,9 km/h (1 Bft)
03.03.2013 20:25 1,9 C 7,8 C 1,2 C 1,7 C 1,4 C 0,0 C 79 % 86 % 0 % 1023,9 hPa 0,0 l/m 3,5 km/h (1 Bft) S 180 0 min 0,0 UV-I -1,3 C 1,4 C 5,8 km/h (2 Bft)
03.03.2013 20:30 1,9 C 7,8 C 1,2 C 1,7 C 1,3 C 0,0 C 79 % 86 % 0 % 1023,9 hPa 0,0 l/m 3,5 km/h (1 Bft) W-SW 247 0 min 0,0 UV-I -1,3 C 1,3 C 5,1 km/h (1 Bft)
03.03.2013 20:35 1,9 C 7,8 C 1,1 C 1,7 C 1,3 C 0,0 C 79 % 86 % 0 % 1023,9 hPa 0,0 l/m 3,5 km/h (1 Bft) W-SW 247 0 min 0,0 UV-I -1,3 C 1,3 C 5,3 km/h (1 Bft)
03.03.2013 20:40 1,9 C 7,8 C 1,1 C 1,7 C 1,2 C 0,0 C 79 % 86 % 0 % 1023,9 hPa 0,0 l/m 3,7 km/h (1 Bft) W-SW 247 0 min 0,0 UV-I -1,3 C 1,2 C 2,7 km/h (1 Bft)
03.03.2013 20:45 1,9 C 7,8 C 1,0 C 1,7 C 1,4 C 0,0 C 79 % 86 % 0 % 1023,9 hPa 0,0 l/m 3,1 km/h (1 Bft) W-SW 247 0 min 0,0 UV-I -1,3 C 1,4 C 2,4 km/h (1 Bft)
03.03.2013 20:50 1,9 C 7,8 C 1,1 C 1,8 C 1,5 C 0,0 C 79 % 86 % 0 % 1023,9 hPa 0,0 l/m 2,9 km/h (1 Bft) W 270 0 min 0,0 UV-I -1,3 C 1,5 C 4,5 km/h (1 Bft)
03.03.2013 20:55 1,8 C 7,8 C 1,1 C 1,5 C 0,9 C 0,0 C 79 % 87 % 0 % 1023,9 hPa 0,0 l/m 3,9 km/h (1 Bft) W-SW 247 0 min 0,0 UV-I -1,4 C 0,9 C 6,1 km/h (2 Bft)
03.03.2013 21:00 1,9 C 7,8 C 1,1 C 1,5 C 0,6 C 0,0 C 79 % 87 % 0 % 1023,9 hPa 0,0 l/m 4,5 km/h (1 Bft) SW 225 0 min 0,0 UV-I -1,3 C 0,6 C 7,4 km/h (2 Bft)
03.03.2013 21:05 1,7 C 7,8 C 1,0 C 1,3 C 0,4 C 0,0 C 79 % 86 % 0 % 1023,9 hPa 0,0 l/m 4,5 km/h (1 Bft) S-SW 202 0 min 0,0 UV-I -1,5 C 0,4 C 4,8 km/h (1 Bft)
03.03.2013 21:10 1,7 C 7,8 C 0,9 C 1,4 C 0,9 C 0,0 C 79 % 87 % 0 % 1023,9 hPa 0,0 l/m 3,7 km/h (1 Bft) W 270 0 min 0,0 UV-I -1,5 C 0,9 C 2,4 km/h (1 Bft)
03.03.2013 21:15 1,6 C 7,8 C 0,8 C 1,3 C 0,7 C 0,0 C 80 % 87 % 0 % 1023,9 hPa 0,0 l/m 3,5 km/h (1 Bft) W-SW 247 0 min 0,0 UV-I -1,5 C 0,7 C 4,0 km/h (1 Bft)
03.03.2013 21:20 1,6 C 7,8 C 0,7 C 1,2 C 0,4 C 0,0 C 80 % 87 % 0 % 1024,2 hPa 0,0 l/m 4,0 km/h (1 Bft) NW 315 0 min 0,0 UV-I -1,5 C 0,4 C 3,9 km/h (1 Bft)
03.03.2013 21:25 1,6 C 7,8 C 0,8 C 1,3 C 0,7 C 0,0 C 80 % 87 % 0 % 1024,2 hPa 0,0 l/m 3,4 km/h (1 Bft) SW 225 0 min 0,0 UV-I -1,5 C 0,7 C 3,4 km/h (1 Bft)
03.03.2013 21:30 1,6 C 7,8 C 0,8 C 1,3 C 0,8 C 0,0 C 80 % 87 % 0 % 1024,2 hPa 0,0 l/m 3,2 km/h (1 Bft) W 270 0 min 0,0 UV-I -1,5 C 0,8 C 4,8 km/h (1 Bft)
03.03.2013 21:35 1,6 C 7,8 C 0,8 C 1,2 C 0,4 C 0,0 C 80 % 87 % 0 % 1024,2 hPa 0,0 l/m 4,2 km/h (1 Bft) W-SW 247 0 min 0,0 UV-I -1,5 C 0,4 C 6,8 km/h (2 Bft)
03.03.2013 21:40 1,6 C 7,8 C 0,8 C 1,1 C 0,1 C 0,0 C 80 % 87 % 0 % 1024,4 hPa 0,0 l/m 4,7 km/h (1 Bft) S-SW 202 0 min 0,0 UV-I -1,5 C -1,3 C 5,6 km/h (1 Bft)
03.03.2013 21:45 1,7 C 7,8 C 0,8 C 1,3 C 0,4 C 0,0 C 80 % 87 % 0 % 1024,4 hPa 0,0 l/m 4,3 km/h (1 Bft) W-SW 247 0 min 0,0 UV-I -1,4 C 0,4 C 4,3 km/h (1 Bft)
03.03.2013 21:50 1,7 C 7,8 C 0,8 C 1,3 C 0,5 C 0,0 C 80 % 87 % 0 % 1024,4 hPa 0,0 l/m 4,2 km/h (1 Bft) W-SW 247 0 min 0,0 UV-I -1,4 C 0,5 C 4,2 km/h (1 Bft)
03.03.2013 21:55 1,6 C 7,8 C 0,7 C 1,5 C 1,4 C 0,0 C 80 % 87 % 0 % 1024,4 hPa 0,0 l/m 2,4 km/h (1 Bft) SW 225 0 min 0,0 UV-I -1,5 C 1,4 C 2,3 km/h (1 Bft)
03.03.2013 22:00 1,6 C 7,8 C 0,7 C 1,5 C 1,4 C 0,0 C 80 % 87 % 0 % 1024,5 hPa 0,0 l/m 1,8 km/h (1 Bft) W-SW 247 0 min 0,0 UV-I -1,5 C 1,4 C 1,9 km/h (1 Bft)
03.03.2013 22:05 1,5 C 7,8 C 0,7 C 1,5 C 1,4 C 0,0 C 80 % 87 % 0 % 1024,5 hPa 0,0 l/m 1,4 km/h (1 Bft) W-SW 247 0 min 0,0 UV-I -1,6 C 1,4 C 1,9 km/h (1 Bft)
03.03.2013 22:10 1,5 C 7,8 C 0,7 C 1,5 C 1,4 C 0,0 C 80 % 87 % 0 % 1024,5 hPa 0,0 l/m 1,3 km/h (1 Bft) W 270 0 min 0,0 UV-I -1,6 C 1,4 C 4,0 km/h (1 Bft)
03.03.2013 22:15 1,5 C 7,9 C 0,7 C 1,5 C 1,4 C 0,0 C 80 % 87 % 0 % 1024,5 hPa 0,0 l/m 1,9 km/h (1 Bft) S 180 0 min 0,0 UV-I -1,6 C 1,4 C 0,0 km/h (0 Bft)
03.03.2013 22:20 1,5 C 7,9 C 0,7 C 1,4 C 1,3 C 0,0 C 80 % 87 % 0 % 1024,5 hPa 0,0 l/m 1,6 km/h (1 Bft) SO 135 0 min 0,0 UV-I -1,6 C 1,3 C 0,0 km/h (0 Bft)
03.03.2013 22:25 1,3 C 8,0 C 0,7 C 1,3 C 1,2 C 0,0 C 81 % 87 % 0 % 1024,5 hPa 0,0 l/m 0,2 km/h (0 Bft) S 180 0 min 0,0 UV-I -1,6 C 1,2 C 0,0 km/h (0 Bft)
03.03.2013 22:30 1,2 C 8,0 C 0,5 C 1,1 C 1,0 C 0,0 C 81 % 87 % 0 % 1024,5 hPa 0,0 l/m 0,0 km/h (0 Bft) S-SW 202 0 min 0,0 UV-I -1,7 C 1,0 C 0,0 km/h (0 Bft)
03.03.2013 22:35 1,2 C 8,0 C 0,5 C 1,1 C 0,9 C 0,0 C 81 % 87 % 0 % 1024,5 hPa 0,0 l/m 0,0 km/h (0 Bft) SO 135 0 min 0,0 UV-I -1,7 C 0,9 C 0,0 km/h (0 Bft)
03.03.2013 22:40 1,1 C 8,0 C 0,4 C 1,0 C 0,9 C 0,0 C 81 % 87 % 0 % 1025,0 hPa 0,0 l/m 0,0 km/h (0 Bft) W-SW 247 0 min 0,0 UV-I -1,8 C 0,9 C 0,0 km/h (0 Bft)
03.03.2013 22:45 1,1 C 8,0 C 0,4 C 1,0 C 0,9 C 0,0 C 81 % 87 % 0 % 1025,0 hPa 0,0 l/m 0,0 km/h (0 Bft) SO 135 0 min 0,0 UV-I -1,8 C 0,9 C 0,0 km/h (0 Bft)
03.03.2013 22:50 1,0 C 8,0 C 0,4 C 1,0 C 0,9 C 0,0 C 81 % 87 % 0 % 1025,0 hPa 0,0 l/m 0,0 km/h (0 Bft) SW 225 0 min 0,0 UV-I -1,9 C 0,9 C 0,0 km/h (0 Bft)
03.03.2013 22:55 0,9 C 8,0 C 0,4 C 0,9 C 0,9 C 0,0 C 82 % 87 % 0 % 1025,0 hPa 0,0 l/m 0,0 km/h (0 Bft) S-SO 157 0 min 0,0 UV-I -1,8 C 0,9 C 0,0 km/h (0 Bft)
03.03.2013 23:00 0,9 C 8,0 C 0,5 C 0,9 C 0,9 C 0,0 C 82 % 87 % 0 % 1025,0 hPa 0,0 l/m 0,0 km/h (0 Bft) SO 135 0 min 0,0 UV-I -1,8 C 0,9 C 0,0 km/h (0 Bft)
03.03.2013 23:05 0,8 C 8,0 C 0,4 C 0,8 C 0,8 C 0,0 C 82 % 88 % 0 % 1025,0 hPa 0,0 l/m 0,0 km/h (0 Bft) SO 135 0 min 0,0 UV-I -1,9 C 0,8 C 0,0 km/h (0 Bft)
03.03.2013 23:10 0,8 C 8,0 C 0,5 C 0,9 C 0,9 C 0,1 C 82 % 88 % 0 % 1025,0 hPa 0,0 l/m 0,0 km/h (0 Bft) SW 225 0 min 0,0 UV-I -1,9 C 0,9 C 0,0 km/h (0 Bft)
03.03.2013 23:15 0,8 C 8,0 C 0,5 C 0,9 C 0,9 C 0,1 C 82 % 88 % 0 % 1025,0 hPa 0,0 l/m 0,0 km/h (0 Bft) S-SW 202 0 min 0,0 UV-I -1,9 C 0,9 C 0,0 km/h (0 Bft)
03.03.2013 23:20 0,8 C 8,0 C 0,5 C 0,9 C 0,9 C 0,1 C 83 % 88 % 0 % 1024,9 hPa 0,0 l/m 0,0 km/h (0 Bft) O-SO 112 0 min 0,0 UV-I -1,8 C 0,9 C 0,0 km/h (0 Bft)
03.03.2013 23:25 0,7 C 8,0 C 0,4 C 0,8 C 0,8 C 0,1 C 82 % 88 % 0 % 1024,9 hPa 0,0 l/m 0,0 km/h (0 Bft) S 180 0 min 0,0 UV-I -2,0 C 0,8 C 0,0 km/h (0 Bft)
03.03.2013 23:30 0,7 C 8,0 C 0,4 C 0,8 C 0,8 C 0,1 C 82 % 88 % 0 % 1024,9 hPa 0,0 l/m 0,0 km/h (0 Bft) O-SO 112 0 min 0,0 UV-I -2,0 C 0,8 C 0,0 km/h (0 Bft)
03.03.2013 23:35 0,7 C 8,0 C 0,4 C 0,8 C 0,8 C 0,1 C 82 % 88 % 0 % 1024,9 hPa 0,0 l/m 0,0 km/h (0 Bft) S 180 0 min 0,0 UV-I -2,0 C 0,8 C 0,0 km/h (0 Bft)
03.03.2013 23:40 0,7 C 8,0 C 0,5 C 0,8 C 0,8 C 0,1 C 82 % 88 % 0 % 1024,9 hPa 0,0 l/m 0,0 km/h (0 Bft) W-SW 247 0 min 0,0 UV-I -2,0 C 0,8 C 0,0 km/h (0 Bft)
03.03.2013 23:45 0,7 C 8,0 C 0,5 C 0,9 C 0,9 C 0,2 C 82 % 88 % 0 % 1024,9 hPa 0,0 l/m 0,0 km/h (0 Bft) S-SO 157 0 min 0,0 UV-I -2,0 C 0,9 C 0,0 km/h (0 Bft)
03.03.2013 23:50 0,6 C 8,0 C 0,5 C 0,9 C 0,9 C 0,3 C 82 % 88 % 0 % 1024,9 hPa 0,0 l/m 0,0 km/h (0 Bft) W-SW 247 0 min 0,0 UV-I -2,1 C 0,9 C 0,0 km/h (0 Bft)
03.03.2013 23:55 0,7 C 8,0 C 0,5 C 0,9 C 0,9 C 0,2 C 82 % 88 % 0 % 1024,9 hPa 0,0 l/m 0,0 km/h (0 Bft) S-SO 157 0 min 0,0 UV-I -2,0 C 0,9 C 0,0 km/h (0 Bft)
_ Min-Zeit 01:22 12:35 00:00 01:12 05:27 00:00 13:35 15:25 00:00 06:37 - 01:17 - - - 00:00 01:22 05:27 00:10
Minimum _ -2,5 C 7,6 C -2,7 C -2,6 C -4,2 C 0,0 C 75 % 84 % 0 % 1020,2 hPa - 0,0 km/h (0 Bft) - - - 0,0 UV-I -4,4 C -8,3 C 0,0 km/h (0 Bft)
_ Max-Zeit 15:10 00:00 13:30 14:15 14:15 13:10 06:32 00:00 13:10 22:40 00:00 05:37 - - 00:00 12:30 14:10 15:00 05:37
Maximum _ 3,2 C 8,2 C 3,2 C 4,2 C 4,2 C 1,1 C 89 % 91 % 29 % 1025,0 hPa 0,0 l/m 10,3 km/h
S (2 Bft)
- - 0 min 0,6 UV-I -0,5 C 3,8 C 17,2 km/h
S (3 Bft)
Durchschnitt _ 0,5 C 7,9 C 0,7 C 0,5 C 0,1 C 0,2 C 83 % 88 % 3 % 1022,2 hPa #0,0 l/m 4,6 km/h (1 Bft) W-SW - #0 min. 0,3 UV-I -2,1 C -1,1 C 5,7 km/h (1 Bft)
2013 www.wetterstation-wechselburg.de